This is the latest recevied weather packets stored in our database for station/object NR0Q. If no packets are shown the sender has not sent any weather packets the latest 10 day(s).
| Time | Temp. | Humidity | Pressure | Rain* | Wind** | Luminosity | Snow |
|---|---|---|---|---|---|---|---|
| 1778003101 | 12.78° C | 71% | 1008.5 hPa | 0 mm | - | - | - |
| 1778002201 | 12.78° C | 73% | 1008.5 hPa | 0 mm | - | - | - |
| 1778001301 | 12.78° C | 73% | 1007.5 hPa | 0 mm | - | - | - |
| 1778000402 | 12.78° C | 74% | 1007.5 hPa | 0 mm | - | - | - |
| 1777999501 | 12.78° C | 75% | 1007.5 hPa | 0 mm | - | - | - |
| 1777998601 | 12.78° C | 76% | 1007.5 hPa | 0 mm | - | - | - |
| 1777997701 | 12.78° C | 77% | 1006.4 hPa | 0 mm | - | - | - |
| 1777996801 | 12.78° C | 82% | 1006.4 hPa | 0 mm | - | - | - |
| 1777995901 | 12.78° C | 81% | 1006.4 hPa | 0 mm | - | - | - |
| 1777995001 | 13.33° C | 83% | 1006.4 hPa | 0 mm | - | - | - |
| 1777994102 | 13.89° C | 81% | 1006.4 hPa | 0 mm | - | - | - |
| 1777993202 | 14.44° C | 79% | 1006.4 hPa | 0 mm | - | - | - |
| 1777992302 | 15° C | 79% | 1006.4 hPa | 0 mm | - | - | - |
| 1777991401 | 16.11° C | 79% | 1005.4 hPa | 0 mm | - | - | - |
| 1777990502 | 16.67° C | 81% | 1005.4 hPa | 0 mm | - | - | - |
| 1777989601 | 17.22° C | 81% | 1004.7 hPa | 0 mm | - | - | - |
| 1777988701 | 17.78° C | 83% | 1004.7 hPa | 0 mm | - | - | - |
| 1777987801 | 17.78° C | 84% | 1004.7 hPa | 0 mm | - | - | - |
| 1777986901 | 17.78° C | 83% | 1004.7 hPa | 0 mm | - | - | - |
| 1777986001 | 17.78° C | 81% | 1004.7 hPa | 0 mm | - | - | - |
| 1777985101 | 18.33° C | 79% | 1004.7 hPa | 0 mm | - | - | - |
| 1777984201 | 18.33° C | 76% | 1004.7 hPa | 0 mm | - | - | - |
| 1777983301 | 18.33° C | 77% | 1004.7 hPa | 0 mm | - | - | - |
| 1777982401 | 18.33° C | 79% | 1004.7 hPa | 0 mm | - | - | - |
| 1777981501 | 18.33° C | 79% | 1003.7 hPa | 0 mm | - | - | - |
* Rain latest hour (hover to see other rain measurements)
** Current wind speed in m/s (hover to see current wind gust speed)